Location: Skymont Scout Reservation
(35.4344°N, 85.8742°W)
Time: 04:45:27
(UTC-06:00)

ISS - All Passes

Search period start: 13 February 2016 00:00
Search period end: 23 February 2016 00:00
Orbit: 398 x 408 km, 51.6° (Epoch: 13 February)

Date Brightness Start Highest point End Pass type
(mag) Time Alt. Az. Time Alt. Az. Time Alt. Az.
13 Feb - 13:22:28 10° SW 13:25:40 61° SE 13:28:52 10° NE daylight
13 Feb - 15:00:20 10° WNW 15:02:22 15° NNW 15:04:24 10° N daylight
13 Feb - 19:53:01 10° NNW 19:55:32 20° NNE 19:58:03 10° E visible
13 Feb - 21:29:03 10° WNW 21:32:03 35° SW 21:35:02 10° SSE night (unlit)
14 Feb - 12:30:12 10° S 12:33:00 27° SE 12:35:48 10° ENE daylight
14 Feb - 14:06:38 10° W 14:09:24 25° NW 14:12:10 10° NNE daylight
14 Feb - 19:00:54 10° N 19:02:31 13° NNE 19:04:09 10° ENE visible
14 Feb - 20:36:06 10° NW 20:39:20 83° SW 20:42:34 10° SE night (unlit)
15 Feb - 11:38:50 10° SSE 11:40:23 13° SE 11:41:56 10° E daylight
15 Feb - 13:13:20 10° WSW 13:16:29 47° NW 13:19:39 10° NE daylight
15 Feb - 19:43:23 10° NW 19:46:31 44° NE 19:49:38 10° ESE visible
15 Feb - 21:20:57 10° W 21:22:38 13° SW 21:24:19 10° SSW night (unlit)
16 Feb - 12:20:24 10° SW 12:23:39 78° SE 12:26:54 10° NE daylight
16 Feb - 13:58:42 10° WNW 14:00:25 14° NNW 14:02:10 10° N daylight
16 Feb - 18:50:51 10° NNW 18:53:33 24° NNE 18:56:15 10° E visible
16 Feb - 20:27:08 10° WNW 20:29:58 28° SW 20:32:48 10° SSE visible
17 Feb - 11:27:53 10° SSW 11:30:51 33° SE 11:33:50 10° ENE daylight
17 Feb - 13:04:44 10° W 13:07:20 21° NNW 13:09:55 10° NNE daylight
17 Feb - 17:58:32 10° N 18:00:29 15° NNE 18:02:24 10° ENE visible
17 Feb - 19:33:59 10° NW 19:37:12 65° SW 19:40:23 10° SE visible
18 Feb - 10:36:02 10° SSE 10:38:07 16° SE 10:40:12 10° E daylight
18 Feb - 12:11:13 10° WSW 12:14:17 38° NW 12:17:23 10° NNE daylight
18 Feb - 18:41:06 10° NW 18:44:17 55° NE 18:47:28 10° ESE visible
18 Feb - 20:19:28 10° WSW 20:20:20 11° SW 20:21:11 10° SW visible
19 Feb - 11:18:05 10° SW 11:21:20 83° NW 11:24:36 10° NE daylight
19 Feb - 12:56:49 10° NW 12:58:11 12° NNW 12:59:34 10° N daylight
19 Feb - 17:48:24 10° NNW 17:51:16 28° NE 17:54:06 10° E visible
19 Feb - 19:24:58 10° WNW 19:27:35 23° SW 19:30:12 10° S visible
20 Feb - 10:25:19 10° SSW 10:28:25 42° SE 10:31:31 10° ENE daylight
20 Feb - 12:02:34 10° WNW 12:04:58 19° NNW 12:07:23 10° NNE daylight
20 Feb - 16:55:55 10° NNW 16:58:07 17° NNE 17:00:18 10° ENE daylight
20 Feb - 18:31:34 10° WNW 18:34:44 51° SW 18:37:52 10° SSE visible
21 Feb - 09:33:08 10° S 09:35:33 19° SE 09:37:59 10° E daylight
21 Feb - 11:08:50 10° WSW 11:11:49 32° NW 11:14:47 10° NNE daylight
21 Feb - 16:03:54 10° N 16:04:49 11° NNE 16:05:45 10° NE daylight
21 Feb - 17:38:32 10° NW 17:41:46 69° NE 17:44:58 10° SE daylight
22 Feb - 10:15:28 10° SW 10:18:42 67° NW 10:21:58 10° NE daylight
22 Feb - 11:54:46 10° NW 11:55:39 11° NNW 11:56:33 10° N daylight
22 Feb - 16:45:40 10° NNW 16:48:40 33° NE 16:51:37 10° ESE daylight
22 Feb - 18:22:32 10° W 18:24:54 19° SW 18:27:15 10° S visible
